Regional Weather Roundup
Issued by NWS

Home | Current Version | Previous Version | Text Only | Print | Product List | Glossary Off
Versions: 1 2 3 4 5 6 7 8 9 10 11 12 13 14 15 16 17 18 19 20 21 22 23 24 25 26 27 28 29 30 31 32 33 34 35 36 37 38 39 40 41 42 43 44 45 46 47 48 49 50

000
ASUS43 KDTX 222301
RWRMI
MICHIGAN HOURLY REGIONAL WEATHER ROUNDUP
NATIONAL WEATHER SERVICE DETROIT/PONTIAC MI
700 PM EDT TUE APR 22 2014

NOTE: "FAIR" INDICATES FEW OR NO CLOUDS BELOW 12,000 FEET WITH NO
SIGNIFICANT WEATHER AND/OR OBSTRUCTION TO VISIBILITY.

MIZ047>049-052>055-059>063-066>070-074>076-081>083-230000-
SOUTHEAST LOWER MICHIGAN

CITY           SKY/WX    TMP DP  RH WIND       PRES   REMARKS
ADRIAN         CLOUDY    49  32  52 N16G29    29.87R
ALMA           CLOUDY    46  28  50 NW18G25   29.91R
ANN ARBOR      CLOUDY    47  31  53 NW24G35   29.86R
BAD AXE        FLURRIES  39  34  80 NW17G25   29.83R WCI  30
CARO           LGT RAIN  42  35  76 NW16G23   29.86R
DETROIT CITY   CLOUDY    49  32  52 NW20G31   29.83R
DETROIT        PTSUNNY   49  33  54 NW23G30   29.85R
FLINT          CLOUDY    45  31  58 NW22G31   29.87R
GROSSE ILE     CLOUDY    50  34  53 NW20G26   29.82R
HILLSDALE      CLOUDY    48  31  53 NW16G32   29.89R
HOWELL         CLOUDY    44  31  60 NW16G26   29.87R

CITY           SKY/WX    TMP DP  RH WIND       PRES   REMARKS
JACKSON        CLOUDY    45  31  58 NW16G24   29.89R
LAMBERTVILLE   CLOUDY    52  32  46 NW14G22   29.86R
LANSING        CLOUDY    45  29  53 NW21G28   29.91R
LAPEER         DRIZZLE   41  33  71 NW15G23   29.85R
MASON          CLOUDY    45  31  58 NW15G26   29.89R
MONROE         CLOUDY    52  34  50 NW13      29.84R
MT. CLEMENS    CLOUDY    46  34  61 NW21G26   29.80R
PONTIAC        CLOUDY    44  31  60 NW24G31   29.84R
PORT HOPE        N/A     42  33  70 NW14G21   29.80R
PORT HURON     CLOUDY    43  34  70 W20G31    29.81R
TRI CITIES     CLOUDY    44  30  57 NW20G31   29.88R
TROY           CLOUDY    46  32  58 NW13G31   29.85R
SAGINAW HB     CLOUDY    43  30  61 NW28G36   29.87R
YPSILANTI      CLOUDY    50  33  52 NW25G32   29.86R
$$
MIZ043>046-050>051-056>058-064>065-071>073-077>080-230000-
SOUTHWEST LOWER MICHIGAN

CITY           SKY/WX    TMP DP  RH WIND       PRES   REMARKS
BATTLE CREEK   CLOUDY    46  29  51 NW16      29.94R
BENTON HARBOR  MOSUNNY   43  30  60 N10G20    29.99R
BIG RAPIDS     CLOUDY    43  28  54 N13G22    29.93R
COLDWATER      PTSUNNY   47  31  52 N21G26    29.92R
FREMONT        CLOUDY    44  27  51 NW18G24   29.96R
HOLLAND        PTSUNNY   50  28  42 N10G21    29.97R
GRAND RAPIDS   PTSUNNY   47  28  47 NW16      29.94S
IONIA          MOCLDY    45  29  53 NW14G23   29.92R
KALAMAZOO      PTSUNNY   48  29  47 N21G29    29.94R
LUDINGTON      MOSUNNY   39  29  67 N13G23    30.00R WCI  32
MARSHALL       CLOUDY    45  30  55 NW10G21   29.91R
MOUNT PLEASANT PTSUNNY   44  31  60 NW17G26   29.91R
MUSKEGON       PTSUNNY   47  26  44 N17G29    29.98R
SOUTH HAVEN    SUNNY     45  29  53 N12G20    29.98R
$$
MIZ016>042-230000-
NORTHERN LOWER MICHIGAN

CITY           SKY/WX    TMP DP  RH WIND       PRES   REMARKS
ALPENA         CLOUDY    40  31  70 NW16G24   29.85R WCI  31
BEAVER ISLAND  CLOUDY    36  29  76 NW10G20   29.97R WCI  28
BELLAIRE       CLOUDY    37  30  77 NW9G17    29.96R WCI  30
CADILLAC       PTSUNNY   37  28  70 NW18G25   29.93R WCI  27
CHARLEVOIX     CLOUDY    37  31  81 NW7       29.99R WCI  31
FRANKFORT      CLOUDY    40  29  64 N13G20    30.00R WCI  32
GAYLORD        CLOUDY    33  28  81 NW10      29.89R WCI  25
GRAYLING       CLOUDY    35  32  87 NW12G21   29.91R WCI  27
HARBOR SPRINGS CLOUDY    38  29  72 NW9G16    29.93R WCI  31
HOUGHTON LAKE  CLOUDY    35  29  78 NW24G35   29.91R WCI  23
MANISTEE       SUNNY     43  27  52 N16G22    30.00R
OSCODA         CLOUDY    43  32  65 NW22G30   29.82R
PELLSTON       CLOUDY    38  28  67 NW20G32   29.92R WCI  28
ROGERS CITY    CLOUDY    37  32  81 NW18      29.87R WCI  27
TRAVERSE CITY  CLOUDY    38  28  67 NW22G28   29.98R WCI  27
$$
MIZ007>008-015-230000-
EASTERN UPPER MICHIGAN

CITY           SKY/WX    TMP DP  RH WIND       PRES   REMARKS
KINROSS        CLOUDY    36  30  80 NW18G25   29.89R WCI  25
MACKINAC ISLAN CLOUDY    37  30  74 NW14G23   29.90R WCI  29
NEWBERRY       CLOUDY    34  28  80 NW10G17   29.96R WCI  26
S. S. MARIE    CLOUDY    36  29  75 NW13G20   29.89R WCI  27
$$
MIZ004>006-011>014-085-230000-
CENTRAL UPPER MICHIGAN

CITY           SKY/WX    TMP DP  RH WIND       PRES   REMARKS
MANISTIQUE     CLOUDY    36  28  71 NW13G25   29.99R WCI  27
ESCANABA       CLOUDY    39  23  52 N12G23    30.03R WCI  32
MENOMINEE      CLOUDY    43  27  52 N18       30.02R
SAWYER-GWINN   CLOUDY    36  25  64 N17G24    30.03R WCI  25
$$
MIZ001>003-009>011-084-230000-
WESTERN UPPER MICHIGAN

CITY           SKY/WX    TMP DP  RH WIND       PRES   REMARKS
IRON MOUNTAIN  CLOUDY    40  26  57 N16G25    30.03R WCI  31
HOUGHTON       SUNNY     38  25  59 NW8       30.06R WCI  32
COPPER HARBOR    N/A     36  29  75 N10       30.06R WCI  28
IRONWOOD       SUNNY     45  23  42 N8        30.04S
$$

ABBREVIATIONS USED IN REMARKS
   TC - TEMPERATURE IN CELSIUS
  WCI - WIND CHILL INDEX
   HX - HEAT INDEX
  VSB - VISIBILITY




USA.gov is the U.S. government's official web portal to all federal, state and local government web resources and services.